Location: Unspecified
(0.0000°N, 0.0000°E)
Time: 23:54:43
(UTC+02:00)

ARIANE 5 R/B - Visible Passes

Search period start: 18 August 2017 00:00
Search period end: 28 August 2017 00:00
Orbit: 582 x 35545 km, 4.9° (Epoch: 17 August)

Date Brightness Start Highest point End Pass type
(mag) Time Alt. Az. Time Alt. Az. Time Alt. Az.
18 Aug 7.2 00:06:10 10° W 00:23:33 81° N 10:05:18 10° E visible
18 Aug 4.8 21:05:36 10° W 21:10:52 69° N 06:49:18 10° E visible
20 Aug 5.5 05:53:45 25° W 07:07:07 37° W 15:10:35 10° E visible
21 Aug 7.5 02:11:28 10° W 04:02:47 88° WNW 12:10:10 10° E visible
21 Aug 6.5 23:07:56 10° W 23:19:55 79° N 09:05:17 10° E visible
22 Aug 4.2 20:07:46 10° W 20:11:56 65° N 20:29:11 10° E visible
23 Aug 10.5 00:47:39 10° E 04:10:12 28° E 05:39:02 10° E visible
24 Aug 6.0 05:04:50 42° W 06:08:03 50° W 14:12:45 10° E visible
25 Aug 7.7 01:11:57 10° W 02:14:00 81° ENE 11:11:41 10° E visible
25 Aug 5.9 22:09:54 10° W 22:18:31 75° N 08:04:04 10° E visible
27 Aug 10.7 01:35:33 10° E 03:12:50 16° E 04:14:01 10° E visible
27 Aug 9.8 07:13:01 10° W 08:11:03 15° W 09:40:57 10° W visible
